Regional Weather Roundup
Issued by NWS Charleston, WV

Home | Current Version | Previous Version | Text Only | Print | Product List | Glossary Off
Versions: 1 2 3 4 5 6 7 8 9 10 11 12 13 14 15 16 17 18 19 20 21 22 23 24 25 26 27 28 29 30 31 32 33 34 35 36 37 38 39 40 41 42 43 44 45 46 47 48 49 50

000
ASUS41 KRLX 241310
RWRRLX
West Virginia Regional Weather Roundup
National Weather Service Charleston WV
900 AM EDT WED AUG 24 2016

Note: "fair" indicates few or no clouds below 12,000 feet with no
significant weather and/or obstructions to visibility.

WVZ003-241400-
Northern Panhandle of West Virginia

CITY           SKY/WX    TMP DP  RH WIND       PRES   REMARKS
WHEELING       CLOUDY    67  60  78 S6        30.26S
$$

WVZ009-241400-
Northwest West Virginia

CITY           SKY/WX    TMP DP  RH WIND       PRES   REMARKS
PARKERSBURG    CLOUDY    63  63 100 CALM      30.28R
$$

WVZ006-241400-
Western West Virginia

CITY           SKY/WX    TMP DP  RH WIND       PRES   REMARKS
HUNTINGTON     MOSUNNY   68  65  90 S6        30.25R
$$

WVZ015-241400-
West Central West Virginia

CITY           SKY/WX    TMP DP  RH WIND       PRES   REMARKS
CHARLESTON     CLOUDY    65  63  93 CALM      30.26S
$$

WVZ022-031-241400-
North Central West Virginia

CITY           SKY/WX    TMP DP  RH WIND       PRES   REMARKS
CLARKSBURG     MOSUNNY   69  64  84 CALM      30.28S
MORGANTOWN     SUNNY     71  62  73 S3        30.29S
$$

WVZ025-035-042-045-241400-
Southern West Virginia

CITY           SKY/WX    TMP DP  RH WIND       PRES   REMARKS
BECKLEY        CLOUDY    70  61  73 SE7       30.35S
LOGAN          PTSUNNY   70  63  78 CALM      30.29R
BLUEFIELD      MOSUNNY   67  59  75 VRB3      30.38R
LEWISBURG      FOG       59  59  99 NE3       30.37S VSB 1/4
$$

WVZ047-241400-
Northern Mountains of West Virginia

CITY           SKY/WX    TMP DP  RH WIND       PRES   REMARKS
ELKINS         MOSUNNY   64  59  83 CALM      30.34S
$$

WVZ052-241400-
Eastern Panhandle of West Virginia

CITY           SKY/WX    TMP DP  RH WIND       PRES   REMARKS
MARTINSBURG    SUNNY     70  64  81 CALM      30.30S
PETERSBURG     SUNNY     65  62  88 CALM      30.31F
$$



USA.gov is the U.S. government's official web portal to all federal, state and local government web resources and services.